Regional Weather Roundup
Issued by NWS

Home | Current Version | Previous Version | Graphics & Text | Print | Product List | Glossary On
Versions: 1 2 3 4 5 6 7 8 9 10 11 12 13 14 15 16 17 18 19 20 21 22 23 24 25 26 27 28 29 30 31 32 33 34 35 36 37 38 39 40 41 42 43 44 45 46 47 48 49 50
000
ASUS43 KMKX 202120
RWRWI

WISCONSIN REGIONAL WEATHER ROUNDUP
NATIONAL WEATHER SERVICE MILWAUKEE/SULLIVAN WI
400 PM CDT FRI APR 20 2018

NOTE: "FAIR" INDICATES FEW OR NO CLOUDS BELOW 12,000 FEET WITH NO
SIGNIFICANT WEATHER AND/OR OBSTRUCTIONS TO VISIBILITY.

WIZ001-002-006>008-014>016-023>028-202200-
NORTHWEST WISCONSIN

CITY           SKY/WX    TMP DP  RH WIND       PRES   REMARKS
SUPERIOR ARPT  FAIR      59  23  25 W6        30.39F
ASHLAND        FAIR      58  13  17 VRB3      30.40F
HAYWARD        FAIR      53  20  27 SW7       30.41F
SIREN          FAIR      53  20  27 SW10      30.42F
CUMBERLAND     FAIR      45  18  33 CALM      30.43F
RICE LAKE      FAIR      51  17  25 CALM      30.45F
CHETEK         FAIR      53  23  31 CALM      30.43F
LADYSMITH      FAIR      55  20  26 S6        30.43F
EAU CLAIRE     FAIR      54  20  26 W5        30.43F
MENOMONIE      FAIR      55  19  24 SE6       30.43F
NEW RICHMOND   FAIR      51  22  32 NW3       30.44F
OSCEOLA        FAIR      53  20  26 CALM      30.46F
$$

WIZ003>005-009-010-017-018-202200-
NORTH CENTRAL WISCONSIN

CITY           SKY/WX    TMP DP  RH WIND       PRES   REMARKS
MANITOWISH WTR FAIR      54  10  17 CALM      30.39F
ARBOR VITAE    FAIR      57   9  15 SW6       30.39F
WOODRUFF       FAIR      57   9  15 SW6       30.39F
RHINELANDER    FAIR      54  12  18 W3        30.40F
EAGLE RIVER    FAIR      53   7  15 W3        30.38F
LAND O LAKES   FAIR      57   5  12 CALM      30.39F
PHILLIPS       FAIR      53  11  18 SW6       30.40F
TOMAHAWK       FAIR      55   6  14 CALM      30.40F
MEDFORD        FAIR      47  20  34 S8        30.43F
MERRILL          N/A     53  12  19 SW8       30.43F
$$

WIZ029-030-035-036-043>047-202200-
CENTRAL WISCONSIN

CITY           SKY/WX    TMP DP  RH WIND       PRES   REMARKS
WAUSAU         FAIR      51  15  23 W6        30.42F
MOSINEE        PTSUNNY   52  16  24 W5        30.44F
MARSHFIELD     FAIR      54  17  23 CALM      30.42F
STEVENS POINT  FAIR      52  13  21 CALM      30.44F
WAUPACA        FAIR      57  14  18 SE8       30.44F
WAUTOMA        FAIR      54  16  22 CALM      30.44
WISC RAPIDS    FAIR      53  11  18 W8        30.44F
CAMP DOUGLAS   FAIR      54  12  19 SW6       30.44F
$$

WIZ011>013-019>022-031-037>040-048>050-202200-
NORTHEAST WISCONSIN

CITY           SKY/WX    TMP DP  RH WIND       PRES   REMARKS
ANTIGO         FAIR      47  18  31 S7        30.42F
SHAWANO        FAIR      58  10  14 SW8       30.42F
OCONTO         FAIR      52  16  24 S7        30.44F
STURGEON BAY   FAIR      51  18  27 S9        30.45F
GREEN BAY      FAIR      49  19  30 S9        30.46F
MANITOWOC      FAIR      49  21  33 S8        30.48F
APPLETON       MOSUNNY   52  18  25 SW6       30.44F
CLINTONVILLE   FAIR      53  13  20 S9        30.43F
OSHKOSH        FAIR      49  23  36 S3        30.46F
$$

WIZ032>034-041-042-053>061-202200-
SOUTHWEST WISCONSIN

CITY           SKY/WX    TMP DP  RH WIND       PRES   REMARKS
LA CROSSE      FAIR      56  17  21 SW9       30.44F
SPARTA         FAIR      55  14  20 W7        30.45F
VIROQUA        FAIR      51  24  34 CALM      30.43F
BOSCOBEL       FAIR      60  23  24 VRB3      30.43F
PRAIRIE DU CHI FAIR      56  26  31 CALM      30.43F
PLATTEVILLE    FAIR      57  30  35 S7        30.43F
$$

WIZ056-057-062-063-064-067-068-202200-
SOUTH CENTRAL WISCONSIN

CITY           SKY/WX    TMP DP  RH WIND       PRES   REMARKS
REEDSBURG      FAIR      53  16  23 SW3       30.44F
BARABOO/DELLS  FAIR      54  13  20 CALM      30.45F
LONE ROCK      FAIR      59  21  23 NE6       30.43F
MINERAL POINT  FAIR      59  21  23 S9        30.42F
MADISON        PTSUNNY   57  19  22 W5        30.44F
MIDDLETON      FAIR      59  18  20 CALM      30.44F
WATERTOWN      FAIR      53  18  25 CALM      30.46F
MONROE         FAIR      55  19  24 E3        30.43F
JANESVILLE     MOSUNNY   63  10  13 SW12      30.44F
$$

WIZ051-052-058>065-066-070>072-202200-
SOUTHEAST WISCONSIN

CITY           SKY/WX    TMP DP  RH WIND       PRES   REMARKS
MILWAUKEE      PTSUNNY   52  30  43 E8        30.47F
WAUKESHA       SUNNY     52  16  24 NW6       30.48F
MILWAUKEE/TIMM SUNNY     55  10  16 NW6       30.47F
RACINE         FAIR      51  24  34 SE9       30.49F
BURLINGTON     FAIR      56   9  15 NW3       30.47S
KENOSHA        FAIR      56  29  35 E10       30.46F
FOND DU LAC    FAIR      49  17  28 S6        30.46F
SHEBOYGAN      FAIR      51  28  41 S7        30.47F
WEST BEND      FAIR      54  10  17 SW7       30.46F
JUNEAU         FAIR      50  21  31 CALM      30.47F
$$

LSZ147-162-202200-
LAKE SUPERIOR

STATION/POSITION TIME  TEMP    WIND        PRES    WAVE
                       AIR SEA DIR/SP/G            HT/PER
                 (UTC) (F)     (DEG/KT/KT) (MB)    (FT/S)
DEVILS ISLAND    2100   56     160/  4/  8 1029.4F
SAXON HARBOR     2030   45     360/  1/  2 1029.1F
$$

LMZ867-665-643>646-202200-
LAKE MICHIGAN

STATION/POSITION TIME  TEMP    WIND        PRES    WAVE
                       AIR SEA DIR/SP/G            HT/PER
                 (UTC) (F)     (DEG/KT/KT) (MB)    (FT/S)
NORTHPORT PIER   2040   51                 1030.1F
KEWAUNEE LAKESHO 2054   40     170/ 10/ 11 1030.8F
SHEBOYGAN LAKESH 2100   44     170/ 12/ 13 1032.1F
PORT WASHINGTON  2030   45     180/  4/  6 1033.2S
MILWAUKEE LAKESH 2100   40      CALM  /  1   N/A
KENOSHA   LAKESH 2100   45                 1031.8
$$

TC  - TEMPERATURE IN CELSIUS
VSB - VISIBILITY IN STATUTE MILES
WCI - WIND CHILL INDEX
HX  - HEAT INDEX





USA.gov is the U.S. government's official web portal to all federal, state and local government web resources and services.